Location: Lombard
(41.8800°N, 88.0080°W)
Time: 14:29:30
(UTC-06:00)

Transit 4A - Pass Details

Date: 01 December 2023
Orbit: 870 x 973 km, 66.8° (Epoch: 03 March)

Event Time Altitude Azimuth Distance (km) Brightness Sun altitude
Rises 20:04:19 0° 194° (SSW) 3,649 - -40.8°
Reaches altitude 10° 20:06:55 10° 190° (S) 2,709 - -41.2°
Maximum altitude 20:13:05 56° 114° (ESE) 1,143 - -42.4°
Drops below altitude 10° 20:19:15 10° 38° (NE) 2,705 - -43.5°
Sets 20:21:50 0° 34° (NE) 3,644 - -44.0°
